Location: Albany
(35.0170°S, 117.8920°E)
Time: 02:05:07
(UTC+08:00)

Explorer 7 - Pass Details

Date: 27 January 2021
Orbit: 484 x 677 km, 50.3° (Epoch: 01 March)

Event Time Altitude Azimuth Distance (km) Brightness Sun altitude
Rises 14:57:36 0° 306° (NW) 3,023 11.1 51.6°
Reaches altitude 10° 14:59:58 10° 303° (WNW) 2,118 10.6 51.2°
Maximum altitude 15:04:53 71° 219° (SW) 722 8.5 50.2°
Drops below altitude 10° 15:09:45 10° 134° (SE) 2,099 9.5 49.2°
Sets 15:12:06 0° 132° (SE) 2,995 10.2 48.8°
